Weather Roundup
Issued by NWS Chicago, IL

Current Version | Previous Version | Text Only | Print | Product List | Glossary On
Versions: 1 2 3 4 5 6 7 8 9 10 11 12 13 14 15 16 17 18 19 20 21 22 23 24 25 26 27 28 29 30 31 32 33 34 35 36 37 38 39 40 41 42 43 44 45 46 47 48 49 50
000
NZUS59 KLOT 301121
HRRLOT

CHICAGO AREA WEATHER ROUNDUP
NATIONAL WEATHER SERVICE CHICAGO/ROMEOVILLE IL
600 AM CDT SAT MAY 30 2015

NOTE: "FAIR" INDICATES FEW OR NO CLOUDS BELOW 12,000 FEET WITH NO
SIGNIFICANT WEATHER AND/OR OBSTRUCTIONS TO VISIBILITY.

* THESE STATIONS ARE NOT UNDER NWS QUALITY CONTROL. THEY ALSO MAY NOT
  REPORT WEATHER SUCH AS PRECIPITATION OR FOG.

ILZ005-006-012>014-019>023-301200-
NORTHEAST ILLINOIS

CITY           SKY/WX    TMP DP  RH WIND       PRES   REMARKS
OHARE          LGT RAIN  68  65  90 SW5       29.96R
MIDWAY         LGT RAIN  70  67  90 SW6       29.97R
AURORA         CLOUDY    68  63  84 SW7       29.97R
LANSING*       LGT RAIN  67  65  90 CALM      29.97S
JOLIET*        DRIZZLE   69  68  96 CALM      29.97R
WAUKEGAN       LGT RAIN  67  64  90 CALM      29.95R
DUPAGE AIRPORT LGT RAIN  68  64  87 SW5       29.96R
WHEELING       LGT RAIN  69  64  84 CALM      29.97R
KANKAKEE*      CLOUDY    67  66  96 SW3       29.99R
MORRIS*        LGT RAIN  67  66  95 SW5       29.96R
LEWIS AIRPORT* DRIZZLE   67  66  97 W6        29.97R
NORTHERLY IS     N/A     70  65  84 SW5         N/A
$$

WIZ051-052-058>065-066-070>072-301200-
SOUTHEAST WISCONSIN

CITY           SKY/WX    TMP DP  RH WIND       PRES   REMARKS
MILWAUKEE      LGT RAIN  58  55  90 NE16G24   29.97R FOG
KENOSHA*       LGT RAIN  66  64  93 W5        29.95R
RACINE*        LGT RAIN  65  63  93 CALM      29.97R FOG
BURLINGTON     LGT RAIN  64  63  97 CALM      29.95R
WAUKESHA       LGT RAIN  64  63  94 CALM      29.96R
WEST BEND      LGT RAIN  55  54  94 NE15G21   29.97R
$$

INZ001>003-010>013-019-020-301200-
NORTHWEST INDIANA

CITY           SKY/WX    TMP DP  RH WIND       PRES   REMARKS
GARY*          CLOUDY    70  66  88 S5        29.98R
MICHIGAN CITY* NOT AVBL
RENSSELAER*    NOT AVBL
VALPARAISO     LGT RAIN  68  66  93 NW7       29.98F FOG
$$

LMZ740>746-301200-
SOUTHERN LAKE MICHIGAN

STATION/POSITION TIME  SKY/WX   TEMP WIND        PRES    VSBY
                                AIR  DIR/SP/G
                 (UTC)          (F)  (DEG/KT/KT) (MB)    (MI)
HARRISON CRIB    1100            67  190/  7/  8   N/A
BURNHAM HARBOR   1100            69  210/  3/  7   N/A
CALUMET HARBOR   1100            68  210/  3/  5   N/A
BURNS HARBOR     1000            69  210/ 10/ 14 1015.2R
MICHIGAN CITY    1100            67  190/  9/ 11   N/A
$$

ABBREVIATIONS USED IN REMARKS
   TC - TEMPERATURE IN CELSIUS
  WCI - WIND CHILL INDEX
   HX - HEAT INDEX
  VSB - VISIBILITY
$$


USA.gov is the U.S. government's official web portal to all federal, state and local government web resources and services.